Alamosa, CO

7:06 PM MDT on August 19, 2017 (GMT -0600)
San Luis Valley Regional / Bergman Field

Weather History for KALS - August, 2013

Change the Weather History Date:

Monday, August 19, 2013

  Actual Average Record
Temperature  
Mean Temperature 66 °F 62 °F  
Max Temperature 84 °F 79 °F 88 °F (1945)
Min Temperature 48 °F 46 °F 33 °F (1954)
Degree Days  
Heating Degree Days 0 3  
Month to date heating degree days 47 38  
Since 1 June heating degree days 177 251  
Since 1 July heating degree days 75 83  
Cooling Degree Days 1 0  
Month to date cooling degree days 13 12  
Year to date cooling degree days 78 50  
Since 1 June cooling degree days 78 50  
Growing Degree Days 16 (Base 50)    
Moisture  
Dew Point 44 °F    
Average Humidity 58    
Maximum Humidity 93    
Minimum Humidity 23    
Precipitation  
Precipitation 0.00 in 0.04 in 0.67 in (1993)
Month to date precipitation 2.16 0.78  
Year to date precipitation 4.57 4.46  
Snow  
Snow 0.00 in 0.00 in 0.00 in (2002)
Month to date snowfall 0.0 0.0  
Since 1 June snowfall 0.0 0.0  
Since 1 July snowfall 0.0 0.0  
Snow Depth 0.00 in    
Sea Level Pressure  
Sea Level Pressure 30.09 in    
Wind  
Wind Speed 5 mph (East)    
Max Wind Speed 26 mph    
Max Gust Speed 33 mph    
Visibility 10 miles    
Events Thunderstorm    
T = Trace of Precipitation, MM = Missing Value Source: NWS Daily Summary

Daily Weather History Graph

Daily Weather History Graph

Search for Another Location

Airport or City:

Trip Planner

Search our weather history database for the weather conditions in past years. The results will help you decide how hot, cold, wet, or windy it might be!

Date:

Astronomy

Aug. 19, 2013 Rise Set
Actual Time 6:23 AM MDT 7:50 PM MDT
Civil Twilight 5:55 AM MDT 8:17 PM MDT
Nautical Twilight 5:22 AM MDT 8:50 PM MDT
Astronomical Twilight 4:47 AM MDT 9:25 PM MDT
Moon 6:43 PM MDT (8/19) 4:46 AM MDT (8/19)
Length of Visible Light 14h 21m
Length of Day
13h 26m
Waxing Gibbous, 97% of the Moon is Illuminated
Aug 19
Waxing Gibbous
Aug 20
Full
Aug 28
Last Quarter
Sep 5
New
Sep 12
First Quarter

Hourly Weather History & Observations

Time (MDT) Temp. Dew Point Humidity Pressure Visibility Wind Dir Wind Speed Gust Speed Precip Events Conditions
12:52 AM 57.9 °F 48.0 °F 70% 30.07 in 10.0 mi SSE 5.8 mph - N/A   Mostly Cloudy
1:52 AM 57.9 °F 48.0 °F 70% 30.06 in 10.0 mi Calm Calm - N/A   Mostly Cloudy
2:52 AM 55.0 °F 48.0 °F 77% 30.08 in 10.0 mi Calm Calm - N/A   Mostly Cloudy
3:52 AM 55.0 °F 48.9 °F 80% 30.06 in 10.0 mi Calm Calm - N/A   Partly Cloudy
4:52 AM 51.1 °F 46.9 °F 86% 30.10 in 10.0 mi East 3.5 mph - N/A   Overcast
5:52 AM 50.0 °F 46.0 °F 86% 30.10 in 10.0 mi NE 3.5 mph - N/A   Clear
6:52 AM 48.9 °F 46.0 °F 90% 30.15 in 10.0 mi Calm Calm - N/A   Clear
7:52 AM 57.9 °F 50.0 °F 75% 30.14 in 10.0 mi ESE 5.8 mph - N/A   Clear
8:52 AM 64.0 °F 48.9 °F 58% 30.14 in 10.0 mi ENE 4.6 mph - N/A   Clear
9:52 AM 69.1 °F 48.0 °F 47% 30.12 in 10.0 mi Variable 3.5 mph - N/A   Clear
10:52 AM 72.0 °F 46.9 °F 41% 30.09 in 10.0 mi Variable 3.5 mph - N/A   Clear
11:52 AM 75.0 °F 44.1 °F 33% 30.06 in 10.0 mi Calm Calm - N/A   Clear
12:52 PM 80.1 °F 43.0 °F 27% 30.03 in 10.0 mi Variable 5.8 mph - N/A   Clear
1:52 PM 80.1 °F 41.0 °F 25% 30.01 in 10.0 mi South 4.6 mph - N/A   Clear
2:52 PM 81.0 °F 39.9 °F 23% 29.99 in 10.0 mi Calm Calm - N/A   Clear
3:42 PM 82.4 °F 41.0 °F 23% 30.27 in 10.0 mi Variable 4.6 mph - N/A Thunderstorm Clear
3:52 PM 82.9 °F 41.0 °F 23% 29.96 in 10.0 mi SSE 6.9 mph - N/A   Clear
4:31 PM 80.6 °F 42.8 °F 26% 30.29 in 10.0 mi ESE 24.2 mph 32.2 mph N/A Thunderstorm Clear
4:52 PM 79.0 °F 41.0 °F 26% 30.00 in 10.0 mi ESE 19.6 mph 29.9 mph N/A   Scattered Clouds
4:59 PM 78.8 °F 39.2 °F 24% 30.28 in 10.0 mi ESE 16.1 mph 27.6 mph N/A Thunderstorm Scattered Clouds
5:21 PM 78.8 °F 42.8 °F 28% 30.28 in 10.0 mi East 11.5 mph - N/A   Partly Cloudy
5:52 PM 79.0 °F 39.9 °F 25% 30.00 in 10.0 mi East 6.9 mph 17.3 mph N/A   Clear
6:52 PM 75.0 °F 39.0 °F 27% 30.02 in 10.0 mi East 21.9 mph 29.9 mph N/A   Scattered Clouds
7:06 PM 75.2 °F 37.4 °F 25% 30.28 in 10.0 mi East 12.7 mph 23.0 mph N/A   Partly Cloudy
7:52 PM 70.0 °F 46.0 °F 42% 30.03 in 10.0 mi WSW 8.1 mph - N/A   Mostly Cloudy
8:52 PM 66.0 °F 46.0 °F 48% 30.04 in 10.0 mi Calm Calm - N/A   Clear
9:52 PM 62.1 °F 46.9 °F 58% 30.05 in 10.0 mi NNE 4.6 mph - N/A   Clear
10:52 PM 60.1 °F 46.9 °F 62% 30.06 in 10.0 mi NE 5.8 mph - N/A   Clear
11:52 PM 57.9 °F 46.9 °F 67% 30.06 in 10.0 mi NNE 3.5 mph - N/A   Clear